Regional Weather Roundup
Issued by NWS

Home | Current Version | Previous Version | Graphics & Text | Print | Product List | Glossary Off
Versions: 1 2 3 4 5 6 7 8 9 10 11 12 13 14 15 16 17 18 19 20 21 22 23 24 25 26 27 28 29 30 31 32 33 34 35 36 37 38 39 40 41 42 43 44 45 46 47 48 49 50

000
ASUS43 KTOP 231008
RWRKS

WEATHER ROUNDUP FOR KANSAS
NATIONAL WEATHER SERVICE GOODLAND KS
500 AM CDT WED AUG 23 2017

NOTE:  "FAIR" INDICATES FEW OR NO CLOUDS BELOW 12,000 FEET WITH NO
SIGNIFICANT WEATHER AND/OR OBSTRUCTIONS TO VISIBILITY.

KSZ001>006-013>018-027>032-041>047-231100-
NORTHWEST KANSAS

CITY           SKY/WX    TMP DP  RH WIND       PRES   REMARKS
GOODLAND       CLEAR     56  48  74 S10       30.20F
HAYS           CLEAR     55  50  83 SE3       30.19F
HILL CITY      CLEAR     54  50  86 CALM      30.20S
RUSSELL        CLEAR     55  48  77 SE8       30.18F
$$

KSZ061>065-074>080-084>089-231100-
SOUTHWEST KANSAS

CITY           SKY/WX    TMP DP  RH WIND       PRES   REMARKS
DODGE CITY       N/A    N/A N/A N/A MISG      30.20S
ELKHART          N/A     62  62 100 SE9         N/A
GARDEN CITY    CLEAR     56  50  80 SE7       30.20F
GREAT BEND     CLEAR     57  51  80 E3        30.20S
LIBERAL        CLEAR     62  53  72 E9        30.21S
PRATT          CLEAR     58  49  72 NE3       30.19S
$$

KSZ066>073-081>083-090>101-231100-
SOUTHEAST KANSAS

CITY           SKY/WX    TMP DP  RH WIND       PRES   REMARKS
CHANUTE        CLEAR     60  55  83 NE7       30.14S
COFFEYVILLE    PTCLDY    62  58  86 N6        30.11F
HUTCHINSON     CLEAR     55  52  89 CALM      30.17F
MEDICINE LODGE   N/A     60  52  74 NE7       30.16F
NEWTON         CLEAR     58  52  80 NE6       30.18S
PARSONS        PTCLDY    60  56  86 CALM      30.14S
WICHITA INTL   CLEAR     62  55  77 NE9       30.16S
WICHITA JABRA  CLEAR     57  56  96 N5        30.17R
WICHITA MCCONL CLEAR     59  54  83 NE7       30.16F
WINFIELD       CLEAR     62  54  74 NE7       30.16S
$$

KSZ007>012-019>026-033>040-048>060-102>105-231100-
NORTHEAST KANSAS

CITY           SKY/WX    TMP DP  RH WIND       PRES   REMARKS
CONCORDIA      CLEAR     58  52  80 CALM      30.18F
EMPORIA        CLEAR     56  54  93 CALM      30.17S
LAWRENCE       CLEAR     56  54  93 CALM      30.16F
MANHATTAN      CLEAR     53  52  96 CALM      30.17F
MARYSVILLE     CLEAR     50  50 100 CALM      30.17S
OLATHE IND     CLEAR     56  54  93 NE5       30.17S
OLATHE EXE     CLEAR     59  54  83 CALM      30.16S
SALINA         CLEAR     58  50  75 CALM      30.18F
TOPEKA BILLARD CLEAR     56  55  97 CALM      30.16F
TOPEKA FORBES  CLEAR     58  55  90 N5        30.16F
$$




USA.gov is the U.S. government's official web portal to all federal, state and local government web resources and services.